Location: LDNL
(36.4545°S, 141.6685°E)
Time: 07:13:09
(UTC+10:00)

Altair - Visible Passes

Search period start: 10 August 2022 00:00
Search period end: 20 August 2022 00:00
Orbit: 1502 x 1682 km, 47.2° (Epoch: 09 August)

Date Brightness Start Highest point End Pass type
(mag) Time Alt. Az. Time Alt. Az. Time Alt. Az.
10 Aug 9.1 06:12:54 10° N 06:21:02 34° NE 06:29:28 10° ESE visible
11 Aug 9.2 05:48:07 10° N 05:55:57 31° NE 06:04:03 10° ESE visible
12 Aug 9.2 05:23:23 10° N 05:30:53 28° NE 05:38:36 10° ESE visible
13 Aug 9.3 04:58:43 10° N 05:05:49 25° NE 05:13:06 10° ESE visible
14 Aug 9.3 04:34:07 10° N 04:40:46 22° NE 04:47:33 10° E visible
14 Aug 7.8 06:34:56 10° NW 06:44:19 78° NE 06:54:09 10° ESE visible
15 Aug 9.4 04:09:38 10° NNE 04:15:43 20° NE 04:21:56 10° E visible
15 Aug 7.8 06:09:51 10° NW 06:19:09 73° NE 06:28:53 10° ESE visible
16 Aug 9.4 03:45:14 10° NNE 03:50:41 17° ENE 03:56:13 10° E visible
16 Aug 7.8 05:44:47 10° NW 05:54:00 68° NE 06:03:37 10° ESE visible
17 Aug 9.4 03:22:08 12° NNE 03:25:38 15° ENE 03:30:20 10° E visible
17 Aug 7.8 05:20:14 12° NW 05:28:51 63° NE 05:38:22 10° ESE visible
18 Aug 9.5 02:59:18 12° NE 03:00:37 13° ENE 03:04:12 10° E visible
18 Aug 7.9 04:57:24 22° NNW 05:03:43 58° NE 05:13:06 10° ESE visible
19 Aug 9.6 02:36:17 11° ENE 02:36:17 11° ENE 02:37:21 10° ENE visible
19 Aug 8.0 04:34:22 32° NNW 04:38:36 53° NE 04:47:49 10° ESE visible
19 Aug 7.7 06:33:58 10° WNW 06:43:17 63° SSW 06:53:03 10° ESE visible
